Location: Winthrop
(48.4780°N, 120.1850°W)
Time: 14:45:34
(UTC-07:00)

Vanguard 3 - Pass Details

Date: 11 February 2023
Orbit: 508 x 3249 km, 33.3° (Epoch: 22 March)

Event Time Altitude Azimuth Distance (km) Brightness Sun altitude
Rises 22:39:18 0° 261° (W) 5,012 11.4 -50.1°
Reaches altitude 10° 22:44:02 10° 243° (WSW) 4,519 10.9 -50.5°
Enters shadow 22:45:44 13° 235° (SW) 4,450 10.8 -50.7°
